| time (UTC) | temp C | wind direction | speed KPH | gust KPH | rain 1hr cm | rain 24hr cm | rain mn cm | humidity % | barometer mb |
| 20260505025136 | 17 | 187 | 4.8 | 8.0 | 0.00 | 0.00 | 0.00 | 69 | 1012.5 |
| 20260505024633 | 18 | 206 | 4.8 | 9.7 | 0.00 | 0.00 | 0.00 | 68 | 1012.7 |
| 20260505024131 | 19 | 189 | 8.0 | 11.3 | 0.00 | 0.00 | 0.00 | 66 | 1012.5 |
| 20260505023628 | 20 | 170 | 4.8 | 8.0 | 0.00 | 0.00 | 0.00 | 64 | 1012.5 |
| 20260505023125 | 20 | 192 | 4.8 | 8.0 | 0.00 | 0.00 | 0.00 | 62 | 1012.3 |
| 20260505022623 | 20 | 187 | 3.2 | 8.0 | 0.00 | 0.00 | 0.00 | 61 | 1012.5 |
| 20260505022119 | 20 | 190 | 4.8 | 8.0 | 0.00 | 0.00 | 0.00 | 61 | 1012.5 |
| 20260505021616 | 20 | 193 | 4.8 | 8.0 | 0.00 | 0.00 | 0.00 | 60 | 1012.2 |
| 20260505021113 | 21 | 157 | 4.8 | 11.3 | 0.00 | 0.00 | 0.00 | 58 | 1012.3 |
| 20260505020608 | 21 | 211 | 4.8 | 4.8 | 0.00 | 0.00 | 0.00 | 57 | 1012.3 |
| 20260505020105 | 22 | 194 | 1.6 | 4.8 | 0.00 | 0.00 | 0.00 | 56 | 1012.3 |
| 20260505015602 | 22 | 182 | 3.2 | 8.0 | 0.00 | 0.00 | 0.00 | 57 | 1012.2 |
| 20260505015059 | 22 | 201 | 9.7 | 11.3 | 0.00 | 0.00 | 0.00 | 56 | 1012.2 |
| 20260505014555 | 22 | 205 | 3.2 | 4.8 | 0.00 | 0.00 | 0.00 | 57 | 1012.1 |
| 20260505014052 | 22 | 248 | 8.0 | 9.7 | 0.00 | 0.00 | 0.00 | 56 | 1012.2 |
| 20260505013549 | 22 | 201 | 3.2 | 3.2 | 0.00 | 0.00 | 0.00 | 57 | 1012.4 |
| 20260505013047 | 22 | 184 | 3.2 | 8.0 | 0.00 | 0.00 | 0.00 | 56 | 1012.5 |
| 20260505012545 | 23 | 207 | 3.2 | 3.2 | 0.00 | 0.00 | 0.00 | 56 | 1012.1 |
| 20260505012042 | 23 | 204 | 6.4 | 11.3 | 0.00 | 0.00 | 0.00 | 54 | 1012.1 |
| 20260505011537 | 23 | 127 | 4.8 | 11.3 | 0.00 | 0.00 | 0.00 | 53 | 1012.3 |
| 20260505011035 | 23 | 180 | 11.3 | 12.9 | 0.00 | 0.00 | 0.00 | 52 | 1012.3 |
| 20260505010530 | 23 | 173 | 8.0 | 11.3 | 0.00 | 0.00 | 0.00 | 52 | 1012.2 |
| 20260505010027 | 24 | 204 | 6.4 | 11.3 | 0.00 | 0.00 | 0.00 | 51 | 1012.3 |
| 20260505005523 | 25 | 220 | 6.4 | 8.0 | 0.00 | 0.00 | 0.00 | 51 | 1012.4 |
| 20260505005021 | 25 | 178 | 3.2 | 3.2 | 0.00 | 0.00 | 0.00 | 51 | 1012.3 |
| 20260505004518 | 25 | 191 | 3.2 | 4.8 | 0.00 | 0.00 | 0.00 | 50 | 1012.3 |
| 20260505004014 | 24 | 180 | 4.8 | 9.7 | 0.00 | 0.00 | 0.00 | 51 | 1012.2 |
| 20260505003512 | 24 | 153 | 6.4 | 9.7 | 0.00 | 0.00 | 0.00 | 51 | 1012.3 |
| 20260505003009 | 25 | 138 | 9.7 | 12.9 | 0.00 | 0.00 | 0.00 | 50 | 1012.3 |
| 20260505002504 | 25 | 184 | 6.4 | 9.7 | 0.00 | 0.00 | 0.00 | 50 | 1012.3 |
| 20260505002003 | 25 | 193 | 4.8 | 9.7 | 0.00 | 0.00 | 0.00 | 49 | 1012.3 |
| 20260505001500 | 25 | 201 | 4.8 | 8.0 | 0.00 | 0.00 | 0.00 | 50 | 1012.3 |
| 20260505000956 | 25 | 214 | 3.2 | 8.0 | 0.00 | 0.00 | 0.00 | 51 | 1012.4 |
| 20260505000455 | 24 | 209 | 4.8 | 8.0 | 0.00 | 0.00 | 0.00 | 52 | 1012.4 |
| 20260504235951 | 24 | 156 | 8.0 | 9.7 | 0.00 | 0.00 | 0.00 | 51 | 1012.4 |
| 20260504235448 | 24 | 191 | 8.0 | 11.3 | 0.00 | 0.00 | 0.00 | 51 | 1012.5 |
| 20260504234945 | 24 | 186 | 6.4 | 9.7 | 0.00 | 0.00 | 0.00 | 51 | 1012.4 |
| 20260504234442 | 24 | 152 | 6.4 | 9.7 | 0.00 | 0.00 | 0.00 | 51 | 1012.5 |
| 20260504233938 | 24 | 137 | 6.4 | 11.3 | 0.00 | 0.00 | 0.00 | 52 | 1012.3 |
| 20260504233434 | 24 | 161 | 3.2 | 8.0 | 0.00 | 0.00 | 0.00 | 52 | 1012.4 |
| 20260504232931 | 23 | 225 | 4.8 | 11.3 | 0.00 | 0.00 | 0.00 | 51 | 1012.5 |
| 20260504232429 | 23 | 179 | 4.8 | 11.3 | 0.00 | 0.00 | 0.00 | 51 | 1012.5 |
| 20260504231926 | 23 | 137 | 6.4 | 9.7 | 0.00 | 0.00 | 0.00 | 51 | 1012.4 |
| 20260504231421 | 24 | 141 | 8.0 | 12.9 | 0.00 | 0.00 | 0.00 | 51 | 1012.4 |
| 20260504230917 | 24 | 186 | 11.3 | 17.7 | 0.00 | 0.00 | 0.00 | 51 | 1012.7 |
| 20260504230415 | 24 | 191 | 6.4 | 14.5 | 0.00 | 0.00 | 0.00 | 50 | 1012.6 |
| 20260504225914 | 23 | 203 | 4.8 | 9.7 | 0.00 | 0.00 | 0.00 | 51 | 1012.7 |
| 20260504225410 | 25 | 239 | 6.4 | 14.5 | 0.00 | 0.00 | 0.00 | 49 | 1012.8 |
| 20260504224908 | 24 | 229 | 4.8 | 8.0 | 0.00 | 0.00 | 0.00 | 50 | 1013.0 |
| 20260504224404 | 24 | 163 | 3.2 | 8.0 | 0.00 | 0.00 | 0.00 | 51 | 1012.7 |
| 20260504223901 | 24 | 183 | 8.0 | 11.3 | 0.00 | 0.00 | 0.00 | 50 | 1013.0 |
| 20260504223357 | 24 | 179 | 6.4 | 11.3 | 0.00 | 0.00 | 0.00 | 50 | 1013.0 |
| 20260504222853 | 25 | 172 | 8.0 | 11.3 | 0.00 | 0.00 | 0.00 | 47 | 1013.0 |
| 20260504222350 | 25 | 195 | 3.2 | 4.8 | 0.00 | 0.00 | 0.00 | 48 | 1013.0 |
| 20260504221849 | 25 | 189 | 4.8 | 8.0 | 0.00 | 0.00 | 0.00 | 47 | 1013.1 |
| 20260504221345 | 25 | 206 | 4.8 | 11.3 | 0.00 | 0.00 | 0.00 | 47 | 1013.1 |
| 20260504220842 | 24 | 179 | 4.8 | 4.8 | 0.00 | 0.00 | 0.00 | 47 | 1013.3 |
| 20260504220339 | 23 | 182 | 6.4 | 9.7 | 0.00 | 0.00 | 0.00 | 48 | 1013.2 |
| 20260504215836 | 24 | 211 | 8.0 | 9.7 | 0.00 | 0.00 | 0.00 | 46 | 1013.3 |
| 20260504215332 | 23 | 250 | 4.8 | 8.0 | 0.00 | 0.00 | 0.00 | 47 | 1013.3 |
| 20260504214828 | 23 | 155 | 3.2 | 9.7 | 0.00 | 0.00 | 0.00 | 47 | 1013.4 |
| 20260504214326 | 23 | 205 | 9.7 | 14.5 | 0.00 | 0.00 | 0.00 | 47 | 1013.3 |
| 20260504213822 | 23 | 226 | 6.4 | 8.0 | 0.00 | 0.00 | 0.00 | 51 | 1013.4 |
| 20260504213318 | 23 | 248 | 6.4 | 8.0 | 0.00 | 0.00 | 0.00 | 50 | 1013.3 |
| 20260504212816 | 23 | 228 | 4.8 | 9.7 | 0.00 | 0.00 | 0.00 | 50 | 1013.6 |
| 20260504212312 | 23 | 187 | 6.4 | 12.9 | 0.00 | 0.00 | 0.00 | 50 | 1013.3 |
| 20260504211810 | 23 | 167 | 6.4 | 8.0 | 0.00 | 0.00 | 0.00 | 51 | 1013.5 |
| 20260504211305 | 23 | 196 | 3.2 | 11.3 | 0.00 | 0.00 | 0.00 | 52 | 1013.6 |
| 20260504210803 | 22 | 170 | 6.4 | 8.0 | 0.00 | 0.00 | 0.00 | 51 | 1013.8 |
| 20260504210300 | 22 | 185 | 8.0 | 11.3 | 0.00 | 0.00 | 0.00 | 53 | 1013.7 |
| 20260504205757 | 22 | 225 | 4.8 | 12.9 | 0.00 | 0.00 | 0.00 | 55 | 1013.5 |
| 20260504205255 | 22 | 220 | 4.8 | 9.7 | 0.00 | 0.00 | 0.00 | 54 | 1013.6 |
| 20260504204753 | 22 | 226 | 8.0 | 12.9 | 0.00 | 0.00 | 0.00 | 54 | 1013.7 |
| 20260504204251 | 22 | 222 | 8.0 | 16.1 | 0.00 | 0.00 | 0.00 | 53 | 1013.7 |
| 20260504203750 | 22 | 227 | 4.8 | 4.8 | 0.00 | 0.00 | 0.00 | 56 | 1013.8 |
| 20260504203247 | 21 | 184 | 6.4 | 12.9 | 0.00 | 0.00 | 0.00 | 55 | 1013.6 |
| 20260504202747 | 21 | 185 | 11.3 | 12.9 | 0.00 | 0.00 | 0.00 | 55 | 1013.8 |
| 20260504202244 | 21 | 186 | 4.8 | 11.3 | 0.00 | 0.00 | 0.00 | 55 | 1013.7 |
| 20260504201741 | 21 | 185 | 8.0 | 16.1 | 0.00 | 0.00 | 0.00 | 55 | 1013.5 |
| 20260504201238 | 21 | 177 | 3.2 | 17.7 | 0.00 | 0.00 | 0.00 | 55 | 1013.7 |
| 20260504200736 | 21 | 215 | 4.8 | 9.7 | 0.00 | 0.00 | 0.00 | 55 | 1013.7 |
| 20260504200231 | 21 | 191 | 4.8 | 9.7 | 0.00 | 0.00 | 0.00 | 56 | 1013.8 |
| 20260504195728 | 21 | 171 | 4.8 | 11.3 | 0.00 | 0.00 | 0.00 | 56 | 1013.8 |
| 20260504195224 | 21 | 174 | 4.8 | 12.9 | 0.00 | 0.00 | 0.00 | 56 | 1013.9 |
| 20260504194722 | 20 | 242 | 4.8 | 14.5 | 0.00 | 0.00 | 0.00 | 57 | 1014.0 |
| 20260504194218 | 20 | 201 | 8.0 | 12.9 | 0.00 | 0.00 | 0.00 | 57 | 1013.8 |
| 20260504193714 | 20 | 202 | 8.0 | 14.5 | 0.00 | 0.00 | 0.00 | 57 | 1013.9 |
| 20260504193212 | 20 | 200 | 11.3 | 16.1 | 0.00 | 0.00 | 0.00 | 56 | 1013.9 |
| 20260504192710 | 20 | 208 | 11.3 | 14.5 | 0.00 | 0.00 | 0.00 | 56 | 1014.1 |
| 20260504192208 | 20 | 176 | 8.0 | 14.5 | 0.00 | 0.00 | 0.00 | 56 | 1014.0 |
| 20260504191706 | 20 | 193 | 9.7 | 14.5 | 0.00 | 0.00 | 0.00 | 56 | 1014.0 |
| 20260504191202 | 20 | 170 | 8.0 | 12.9 | 0.00 | 0.00 | 0.00 | 58 | 1014.1 |
| 20260504190658 | 20 | 162 | 4.8 | 16.1 | 0.00 | 0.00 | 0.00 | 58 | 1014.2 |
| 20260504190154 | 20 | 171 | 12.9 | 14.5 | 0.00 | 0.00 | 0.00 | 57 | 1014.0 |
| 20260504185651 | 20 | 229 | 4.8 | 8.0 | 0.00 | 0.00 | 0.00 | 58 | 1014.2 |
| 20260504185148 | 20 | 202 | 9.7 | 11.3 | 0.00 | 0.00 | 0.00 | 59 | 1014.1 |
| 20260504184644 | 19 | 194 | 8.0 | 14.5 | 0.00 | 0.00 | 0.00 | 59 | 1014.2 |
| 20260504184139 | 18 | 187 | 9.7 | 14.5 | 0.00 | 0.00 | 0.00 | 61 | 1014.1 |
| 20260504183636 | 18 | 191 | 8.0 | 14.5 | 0.00 | 0.00 | 0.00 | 63 | 1014.2 |
| 20260504183133 | 18 | 208 | 6.4 | 11.3 | 0.00 | 0.00 | 0.00 | 62 | 1014.3 |
| 20260504182631 | 18 | 249 | 9.7 | 12.9 | 0.00 | 0.00 | 0.00 | 62 | 1014.3 |
| 20260504182128 | 18 | 228 | 8.0 | 11.3 | 0.00 | 0.00 | 0.00 | 63 | 1014.0 |
| 20260504181626 | 18 | 215 | 4.8 | 11.3 | 0.00 | 0.00 | 0.00 | 64 | 1014.4 |
| 20260504181123 | 18 | 193 | 8.0 | 9.7 | 0.00 | 0.00 | 0.00 | 63 | 1014.3 |
| 20260504180622 | 18 | 188 | 3.2 | 8.0 | 0.00 | 0.00 | 0.00 | 65 | 1014.5 |
| 20260504180121 | 18 | 237 | 8.0 | 12.9 | 0.00 | 0.00 | 0.00 | 63 | 1014.3 |
| 20260504175617 | 18 | 243 | 6.4 | 9.7 | 0.00 | 0.00 | 0.00 | 64 | 1014.5 |
| 20260504175114 | 18 | 174 | 3.2 | 11.3 | 0.00 | 0.00 | 0.00 | 64 | 1014.4 |
| 20260504174612 | 18 | 161 | 3.2 | 9.7 | 0.00 | 0.00 | 0.00 | 65 | 1014.4 |
| 20260504174108 | 17 | 191 | 6.4 | 11.3 | 0.00 | 0.00 | 0.00 | 67 | 1014.3 |
| 20260504173605 | 17 | 168 | 8.0 | 9.7 | 0.00 | 0.00 | 0.00 | 68 | 1014.2 |
| 20260504173103 | 17 | 204 | 8.0 | 12.9 | 0.00 | 0.00 | 0.00 | 66 | 1014.4 |
| 20260504172559 | 17 | 198 | 11.3 | 12.9 | 0.00 | 0.00 | 0.00 | 67 | 1014.3 |
| 20260504172056 | 17 | 211 | 6.4 | 12.9 | 0.00 | 0.00 | 0.00 | 66 | 1014.3 |
| 20260504171552 | 17 | 186 | 8.0 | 12.9 | 0.00 | 0.00 | 0.00 | 66 | 1014.3 |
| 20260504171050 | 17 | 203 | 6.4 | 12.9 | 0.00 | 0.00 | 0.00 | 67 | 1014.4 |
| 20260504170545 | 17 | 211 | 8.0 | 12.9 | 0.00 | 0.00 | 0.00 | 66 | 1014.2 |
| 20260504150929 | 15 | 155 | 0.0 | 0.0 | 0.00 | 0.00 | 0.00 | 78 | 1013.4 |
| 20260504150426 | 14 | 163 | 1.6 | 3.2 | 0.00 | 0.00 | 0.00 | 78 | 1013.7 |
| 20260504140852 | 10 | 151 | 0.0 | 0.0 | 0.00 | 0.00 | 0.00 | 94 | 1013.3 |
| 20260504140349 | 10 | 151 | 0.0 | 0.0 | 0.00 | 0.00 | 0.00 | 94 | 1013.1 |
| 20260504130817 | 10 | 147 | 0.0 | 0.0 | 0.00 | 0.00 | 0.00 | 92 | 1012.6 |
| 20260504130313 | 10 | 147 | 0.0 | 0.0 | 0.00 | 0.00 | 0.00 | 92 | 1012.5 |
| 20260504120237 | 11 | 139 | 0.0 | 0.0 | 0.00 | 0.00 | 0.00 | 90 | 1012.2 |
| 20260504110704 | 11 | 150 | 0.0 | 0.0 | 0.00 | 0.00 | 0.00 | 91 | 1012.5 |
| 20260504110201 | 11 | 147 | 0.0 | 0.0 | 0.00 | 0.00 | 0.00 | 90 | 1012.4 |
| 20260504100125 | 11 | 148 | 0.0 | 0.0 | 0.00 | 0.00 | 0.00 | 86 | 1012.3 |
| 20260504081518 | 13 | 150 | 0.0 | 0.0 | 0.00 | 0.00 | 0.00 | 79 | 1012.1 |
| 20260504081013 | 12 | 150 | 0.0 | 0.0 | 0.00 | 0.00 | 0.00 | 80 | 1012.1 |
| 20260504080510 | 12 | 150 | 0.0 | 0.0 | 0.00 | 0.00 | 0.00 | 80 | 1012.3 |
| 20260504050323 | 16 | 152 | 0.0 | 0.0 | 0.00 | 0.00 | 0.00 | 72 | 1012.3 |
| 20260504045820 | 16 | 152 | 0.0 | 0.0 | 0.00 | 0.00 | 0.00 | 71 | 1012.0 |
| 20260504045320 | 16 | 153 | 0.0 | 0.0 | 0.00 | 0.00 | 0.00 | 70 | 1012.0 |
| 20260504044817 | 16 | 152 | 0.0 | 0.0 | 0.00 | 0.00 | 0.00 | 69 | 1012.1 |
| 20260504044314 | 16 | 152 | 0.0 | 0.0 | 0.00 | 0.00 | 0.00 | 68 | 1012.1 |
| 20260504043812 | 16 | 152 | 0.0 | 0.0 | 0.00 | 0.00 | 0.00 | 67 | 1012.1 |
| 20260504043308 | 17 | 152 | 0.0 | 0.0 | 0.00 | 0.00 | 0.00 | 65 | 1011.9 |
| 20260504042806 | 17 | 151 | 0.0 | 1.6 | 0.00 | 0.00 | 0.00 | 65 | 1011.9 |
| 20260504042304 | 17 | 151 | 0.0 | 1.6 | 0.00 | 0.00 | 0.00 | 67 | 1011.9 |
| 20260504041759 | 17 | 149 | 0.0 | 0.0 | 0.00 | 0.00 | 0.00 | 65 | 1011.8 |
| 20260504041255 | 18 | 158 | 0.0 | 0.0 | 0.00 | 0.00 | 0.00 | 64 | 1011.9 |
| 20260504040751 | 18 | 156 | 0.0 | 1.6 | 0.00 | 0.00 | 0.00 | 63 | 1011.8 |
| 20260504040249 | 18 | 143 | 0.0 | 4.8 | 0.00 | 0.00 | 0.00 | 61 | 1011.9 |
| 20260504035744 | 19 | 147 | 0.0 | 0.0 | 0.00 | 0.00 | 0.00 | 59 | 1011.9 |
| 20260504035242 | 20 | 153 | 1.6 | 1.6 | 0.00 | 0.00 | 0.00 | 57 | 1011.9 |
| 20260504034739 | 20 | 124 | 1.6 | 1.6 | 0.00 | 0.00 | 0.00 | 55 | 1011.7 |
| 20260504034236 | 20 | 155 | 0.0 | 8.0 | 0.00 | 0.00 | 0.00 | 54 | 1011.5 |
| 20260504033734 | 20 | 143 | 0.0 | 3.2 | 0.00 | 0.00 | 0.00 | 53 | 1011.7 |
| 20260504033231 | 21 | 144 | 1.6 | 3.2 | 0.00 | 0.00 | 0.00 | 50 | 1011.8 |
| 20260504032728 | 21 | 147 | 0.0 | 3.2 | 0.00 | 0.00 | 0.00 | 52 | 1011.5 |
| 20260504032226 | 21 | 140 | 1.6 | 9.7 | 0.00 | 0.00 | 0.00 | 52 | 1011.7 |
| 20260504031722 | 21 | 150 | 1.6 | 3.2 | 0.00 | 0.00 | 0.00 | 51 | 1011.6 |
| 20260504031220 | 21 | 142 | 0.0 | 1.6 | 0.00 | 0.00 | 0.00 | 50 | 1011.4 |
| 20260504030715 | 22 | 156 | 0.0 | 1.6 | 0.00 | 0.00 | 0.00 | 48 | 1011.5 |
| 20260504030213 | 22 | 165 | 1.6 | 3.2 | 0.00 | 0.00 | 0.00 | 48 | 1011.5 |
| 20260504025709 | 22 | 133 | 0.0 | 3.2 | 0.00 | 0.00 | 0.00 | 45 | 1011.6 |